Time,TemperatureF,DewpointF,PressureIn,WindDirection,WindDirectionDegrees,WindSpeedMPH,WindSpeedGustMPH,Humidity,HourlyPrecipIn,Conditions,Clouds,dailyrainin,SolarRadiationWatts/m^2,SoftwareType,DateUTC
2013-07-15 00:01:00,70.0,68.0,30.17,NW,326,0.0,-999.0,95,-99.99,,,-99.99,0.000000,,2013-07-15 04:01:00,
2013-07-15 00:11:00,70.0,68.0,30.17,NW,326,0.0,-999.0,95,-99.99,,,-99.99,0.000000,,2013-07-15 04:11:00,
2013-07-15 00:22:00,70.0,69.0,30.17,NW,326,0.0,-999.0,97,-99.99,,,-99.99,0.000000,,2013-07-15 04:22:00,
2013-07-15 00:33:00,70.0,69.0,30.17,NW,326,0.0,-999.0,97,-99.99,,,-99.99,0.000000,,2013-07-15 04:33:00,
2013-07-15 00:42:00,70.0,69.0,30.17,NW,326,0.0,-999.0,98,-99.99,,,-99.99,0.000000,,2013-07-15 04:42:00,
2013-07-15 00:54:00,69.0,69.0,30.17,NW,326,0.0,-999.0,99,-99.99,,,-99.99,0.000000,,2013-07-15 04:54:00,
2013-07-15 01:02:00,69.0,69.0,30.17,NW,326,0.0,-999.0,99,-99.99,,,-99.99,0.000000,,2013-07-15 05:02:00,
2013-07-15 01:12:00,69.0,69.0,30.16,NW,326,0.0,-999.0,100,-99.99,,,-99.99,0.000000,,2013-07-15 05:12:00,
2013-07-15 01:22:00,70.0,70.0,30.16,NW,326,0.0,-999.0,100,-99.99,,,-99.99,0.000000,,2013-07-15 05:22:00,
2013-07-15 01:32:00,70.0,70.0,30.16,NW,326,0.0,-999.0,100,-99.99,,,-99.99,0.000000,,2013-07-15 05:32:00,
2013-07-15 01:43:00,69.0,69.0,30.16,NW,326,0.0,-999.0,100,-99.99,,,-99.99,0.000000,,2013-07-15 05:43:00,
2013-07-15 01:53:00,69.0,69.0,30.16,NW,326,0.0,-999.0,100,-99.99,,,-99.99,0.000000,,2013-07-15 05:53:00,
2013-07-15 02:02:00,69.0,69.0,30.16,NW,326,0.0,-999.0,100,-99.99,,,-99.99,0.000000,,2013-07-15 06:02:00,
2013-07-15 02:12:00,69.0,69.0,30.16,NW,326,0.0,-999.0,99,-99.99,,,-99.99,0.000000,,2013-07-15 06:12:00,
2013-07-15 02:22:00,69.0,69.0,30.16,NW,326,0.0,-999.0,100,-99.99,,,-99.99,0.000000,,2013-07-15 06:22:00,
2013-07-15 02:32:00,69.0,69.0,30.16,NW,326,0.0,-999.0,100,-99.99,,,-99.99,0.000000,,2013-07-15 06:32:00,
2013-07-15 02:42:00,69.0,69.0,30.16,NW,326,0.0,-999.0,100,-99.99,,,-99.99,0.000000,,2013-07-15 06:42:00,
2013-07-15 02:53:00,69.0,69.0,30.16,NW,326,0.0,-999.0,100,-99.99,,,-99.99,0.000000,,2013-07-15 06:53:00,
2013-07-15 03:01:00,69.0,69.0,30.16,NW,326,0.0,-999.0,100,-99.99,,,-99.99,0.000000,,2013-07-15 07:01:00,
2013-07-15 03:11:00,69.0,69.0,30.16,NW,326,0.0,-999.0,100,-99.99,,,-99.99,0.000000,,2013-07-15 07:11:00,
2013-07-15 03:22:00,70.0,70.0,30.16,NW,326,0.0,-999.0,100,-99.99,,,-99.99,0.000000,,2013-07-15 07:22:00,
2013-07-15 03:33:00,70.0,70.0,30.16,NW,326,0.0,-999.0,100,-99.99,,,-99.99,0.000000,,2013-07-15 07:33:00,
2013-07-15 03:44:00,70.0,70.0,30.16,SSW,205,0.0,-999.0,100,-99.99,,,-99.99,0.000000,,2013-07-15 07:44:00,
2013-07-15 03:53:00,70.0,70.0,30.16,SSW,203,0.0,-999.0,100,-99.99,,,-99.99,0.000000,,2013-07-15 07:53:00,
2013-07-15 04:02:00,70.0,70.0,30.16,SSW,203,0.0,-999.0,100,-99.99,,,-99.99,0.000000,,2013-07-15 08:02:00,
2013-07-15 04:12:00,70.0,70.0,30.16,SSW,205,0.0,-999.0,100,-99.99,,,-99.99,0.000000,,2013-07-15 08:12:00,
2013-07-15 04:22:00,70.0,70.0,30.16,SSW,205,0.0,-999.0,100,-99.99,,,-99.99,0.000000,,2013-07-15 08:22:00,
2013-07-15 04:32:00,70.0,70.0,30.16,SSW,205,0.0,-999.0,100,-99.99,,,-99.99,0.000000,,2013-07-15 08:32:00,
2013-07-15 04:43:00,70.0,70.0,30.16,SSW,203,0.0,-999.0,99,-99.99,,,-99.99,0.000000,,2013-07-15 08:43:00,
2013-07-15 04:53:00,70.0,70.0,30.17,SSW,203,0.0,-999.0,99,-99.99,,,-99.99,0.000000,,2013-07-15 08:53:00,
2013-07-15 05:02:00,70.0,70.0,30.17,SSW,203,0.0,-999.0,99,-99.99,,,-99.99,0.000000,,2013-07-15 09:02:00,
2013-07-15 05:12:00,70.0,70.0,30.17,SSW,205,0.0,-999.0,99,-99.99,,,-99.99,0.000000,,2013-07-15 09:12:00,
2013-07-15 05:22:00,70.0,70.0,30.17,SSW,203,0.0,-999.0,99,-99.99,,,-99.99,0.000000,,2013-07-15 09:22:00,
2013-07-15 05:32:00,70.0,70.0,30.17,SSW,203,0.0,-999.0,99,-99.99,,,-99.99,0.000000,,2013-07-15 09:32:00,
2013-07-15 05:43:00,69.0,69.0,30.17,SSW,205,0.0,-999.0,99,-99.99,,,-99.99,0.000000,,2013-07-15 09:43:00,
2013-07-15 05:52:00,69.0,69.0,30.18,SSW,205,0.0,-999.0,100,-99.99,,,-99.99,7.000000,,2013-07-15 09:52:00,
2013-07-15 06:02:00,69.0,69.0,30.18,SSW,205,0.0,-999.0,100,-99.99,,,-99.99,7.000000,,2013-07-15 10:02:00,
2013-07-15 06:11:00,68.0,68.0,30.18,SSW,205,0.0,-999.0,100,-99.99,,,-99.99,16.000000,,2013-07-15 10:11:00,
2013-07-15 06:22:00,68.0,68.0,30.18,SSW,205,0.0,-999.0,100,-99.99,,,-99.99,19.000000,,2013-07-15 10:22:00,
2013-07-15 06:32:00,68.0,68.0,30.18,SSW,205,0.0,-999.0,100,-99.99,,,-99.99,19.000000,,2013-07-15 10:32:00,
2013-07-15 06:43:00,68.0,68.0,30.19,SSW,205,0.0,-999.0,100,-99.99,,,-99.99,33.000000,,2013-07-15 10:43:00,
2013-07-15 06:53:00,68.0,68.0,30.19,SSW,203,0.0,-999.0,100,-99.99,,,-99.99,51.000000,,2013-07-15 10:53:00,
2013-07-15 07:02:00,68.0,68.0,30.19,SSW,203,0.0,-999.0,100,-99.99,,,-99.99,51.000000,,2013-07-15 11:02:00,
2013-07-15 07:11:00,68.0,68.0,30.19,SSW,205,0.0,-999.0,100,-99.99,,,-99.99,58.000000,,2013-07-15 11:11:00,
2013-07-15 07:22:00,69.0,69.0,30.19,SSW,205,0.0,-999.0,100,-99.99,,,-99.99,155.000000,,2013-07-15 11:22:00,
2013-07-15 07:32:00,69.0,69.0,30.19,SSW,205,0.0,-999.0,100,-99.99,,,-99.99,155.000000,,2013-07-15 11:32:00,
2013-07-15 07:42:00,70.0,70.0,30.19,SSW,203,0.0,-999.0,100,-99.99,,,-99.99,178.000000,,2013-07-15 11:42:00,
2013-07-15 08:01:00,72.0,72.0,30.19,SSW,205,0.0,-999.0,100,-99.99,,,-99.99,273.000000,,2013-07-15 12:01:00,
2013-07-15 08:11:00,73.0,73.0,30.19,SSW,203,0.0,-999.0,100,-99.99,,,-99.99,341.000000,,2013-07-15 12:11:00,
2013-07-15 08:32:00,73.0,73.0,30.20,SSW,205,0.0,-999.0,100,-99.99,,,-99.99,396.000000,,2013-07-15 12:32:00,
2013-07-15 08:42:00,75.0,73.0,30.20,WNW,294,0.0,-999.0,92,-99.99,,,-99.99,443.000000,,2013-07-15 12:42:00,
2013-07-15 08:52:00,75.0,73.0,30.20,WNW,294,0.0,-999.0,92,-99.99,,,-99.99,443.000000,,2013-07-15 12:52:00,
2013-07-15 09:02:00,76.0,70.0,30.21,WNW,298,0.0,-999.0,81,-99.99,,,-99.99,484.000000,,2013-07-15 13:02:00,
2013-07-15 09:11:00,76.0,67.0,30.20,NW,313,0.0,-999.0,74,-99.99,,,-99.99,524.000000,,2013-07-15 13:11:00,
2013-07-15 09:22:00,76.0,67.0,30.20,NW,313,0.0,-999.0,74,-99.99,,,-99.99,524.000000,,2013-07-15 13:22:00,
2013-07-15 09:33:00,78.0,67.0,30.21,NW,319,0.0,-999.0,70,-99.99,,,-99.99,572.000000,,2013-07-15 13:33:00,
2013-07-15 09:43:00,78.0,67.0,30.21,WNW,294,0.0,-999.0,68,-99.99,,,-99.99,607.000000,,2013-07-15 13:43:00,
2013-07-15 09:53:00,78.0,67.0,30.21,WNW,294,0.0,-999.0,68,-99.99,,,-99.99,607.000000,,2013-07-15 13:53:00,
2013-07-15 10:02:00,78.0,67.0,30.21,WNW,294,0.0,-999.0,68,-99.99,,,-99.99,607.000000,,2013-07-15 14:02:00,
2013-07-15 10:22:00,80.0,68.0,30.20,NW,306,0.0,-999.0,66,-99.99,,,-99.99,667.000000,,2013-07-15 14:22:00,
2013-07-15 10:33:00,81.0,68.0,30.20,NNW,328,1.0,-999.0,64,-99.99,,,-99.99,691.000000,,2013-07-15 14:33:00,
2013-07-15 10:58:00,81.0,68.0,30.20,WNW,287,0.0,-999.0,64,-99.99,,,-99.99,744.000000,,2013-07-15 14:58:00,
2013-07-15 11:03:00,82.0,69.0,30.20,WNW,296,0.0,-999.0,64,-99.99,,,-99.99,771.000000,,2013-07-15 15:03:00,
2013-07-15 11:53:00,83.0,67.0,30.19,NW,306,0.0,-999.0,59,-99.99,,,-99.99,848.000000,,2013-07-15 15:53:00,
2013-07-15 12:08:00,84.0,68.0,30.19,NNW,329,0.0,-999.0,59,-99.99,,,-99.99,871.000000,,2013-07-15 16:08:00,
2013-07-15 12:24:00,84.0,67.0,30.19,NW,325,1.0,-999.0,56,-99.99,,,-99.99,846.000000,,2013-07-15 16:24:00,
2013-07-15 12:47:00,85.0,68.0,30.19,WNW,294,1.0,-999.0,57,-99.99,,,-99.99,918.000000,,2013-07-15 16:47:00,
2013-07-15 12:52:00,85.0,68.0,30.19,WNW,294,1.0,-999.0,57,-99.99,,,-99.99,918.000000,,2013-07-15 16:52:00,
2013-07-15 13:08:00,85.0,68.0,30.18,NW,326,2.0,-999.0,56,-99.99,,,-99.99,947.000000,,2013-07-15 17:08:00,
2013-07-15 13:23:00,85.0,66.0,30.17,WNW,285,1.0,-999.0,54,-99.99,,,-99.99,971.000000,,2013-07-15 17:23:00,
2013-07-15 13:56:00,86.0,66.0,30.17,NW,322,1.0,-999.0,51,-99.99,,,-99.99,941.000000,,2013-07-15 17:56:00,
2013-07-15 14:08:00,86.0,67.0,30.17,NW,320,1.0,-999.0,53,-99.99,,,-99.99,950.000000,,2013-07-15 18:08:00,
2013-07-15 14:28:00,86.0,67.0,30.16,West,277,3.0,-999.0,53,-99.99,,,-99.99,954.000000,,2013-07-15 18:28:00,
2013-07-15 14:39:00,85.0,66.0,30.16,NW,313,2.0,-999.0,54,-99.99,,,-99.99,164.000000,,2013-07-15 18:39:00,
2013-07-15 14:45:00,86.0,67.0,30.16,NW,319,2.0,-999.0,53,-99.99,,,-99.99,954.000000,,2013-07-15 18:45:00,
2013-07-15 14:57:00,86.0,67.0,30.16,NW,319,2.0,-999.0,53,-99.99,,,-99.99,954.000000,,2013-07-15 18:57:00,
2013-07-15 15:05:00,86.0,68.0,30.16,NW,315,2.0,-999.0,55,-99.99,,,-99.99,952.000000,,2013-07-15 19:05:00,
2013-07-15 15:12:00,86.0,68.0,30.16,NW,315,2.0,-999.0,55,-99.99,,,-99.99,952.000000,,2013-07-15 19:12:00,
2013-07-15 15:24:00,85.0,67.0,30.16,NW,311,1.0,-999.0,55,-99.99,,,-99.99,948.000000,,2013-07-15 19:24:00,
2013-07-15 15:38:00,85.0,66.0,30.15,NNW,328,2.0,-999.0,54,-99.99,,,-99.99,90.000000,,2013-07-15 19:38:00,
2013-07-15 15:56:00,85.0,66.0,30.15,WNW,299,2.0,-999.0,53,-99.99,,,-99.99,148.000000,,2013-07-15 19:56:00,
2013-07-15 16:07:00,85.0,67.0,30.15,WNW,301,3.0,-999.0,55,-99.99,,,-99.99,116.000000,,2013-07-15 20:07:00,
2013-07-15 16:29:00,85.0,66.0,30.14,WNW,302,2.0,-999.0,54,-99.99,,,-99.99,185.000000,,2013-07-15 20:29:00,
2013-07-15 17:03:00,85.0,67.0,30.14,NW,309,3.0,-999.0,55,-99.99,,,-99.99,113.000000,,2013-07-15 21:03:00,
2013-07-15 17:23:00,85.0,67.0,30.14,WNW,299,4.0,-999.0,55,-99.99,,,-99.99,111.000000,,2013-07-15 21:23:00,
2013-07-15 17:40:00,85.0,68.0,30.13,North,357,3.0,-999.0,56,-99.99,,,-99.99,484.000000,,2013-07-15 21:40:00,
2013-07-15 17:48:00,85.0,68.0,30.13,NW,312,1.0,-999.0,56,-99.99,,,-99.99,97.000000,,2013-07-15 21:48:00,
2013-07-15 17:57:00,85.0,68.0,30.13,NW,312,1.0,-999.0,56,-99.99,,,-99.99,97.000000,,2013-07-15 21:57:00,
2013-07-15 18:03:00,84.0,66.0,30.13,NW,319,4.0,-999.0,55,-99.99,,,-99.99,114.000000,,2013-07-15 22:03:00,
2013-07-15 18:22:00,84.0,67.0,30.13,NW,323,4.0,-999.0,57,-99.99,,,-99.99,148.000000,,2013-07-15 22:22:00,
2013-07-15 18:34:00,84.0,67.0,30.13,NNW,340,3.0,-999.0,56,-99.99,,,-99.99,55.000000,,2013-07-15 22:34:00,
2013-07-15 18:43:00,83.0,66.0,30.13,NW,311,1.0,-999.0,57,-99.99,,,-99.99,48.000000,,2013-07-15 22:43:00,
2013-07-15 18:54:00,83.0,66.0,30.13,NW,311,1.0,-999.0,57,-99.99,,,-99.99,48.000000,,2013-07-15 22:54:00,
2013-07-15 19:06:00,83.0,65.0,30.13,NNW,342,3.0,-999.0,55,-99.99,,,-99.99,49.000000,,2013-07-15 23:06:00,
2013-07-15 19:30:00,82.0,64.0,30.13,NNW,328,1.0,-999.0,54,-99.99,,,-99.99,39.000000,,2013-07-15 23:30:00,
2013-07-15 19:40:00,82.0,65.0,30.13,WNW,301,0.0,-999.0,56,-99.99,,,-99.99,32.000000,,2013-07-15 23:40:00,
2013-07-15 19:47:00,82.0,64.0,30.12,NNW,329,0.0,-999.0,54,-99.99,,,-99.99,30.000000,,2013-07-15 23:47:00,
2013-07-15 19:53:00,82.0,64.0,30.12,NNW,329,0.0,-999.0,54,-99.99,,,-99.99,30.000000,,2013-07-15 23:53:00,
2013-07-15 20:03:00,81.0,62.0,30.12,NW,313,0.0,-999.0,53,-99.99,,,-99.99,76.000000,,2013-07-16 00:03:00,
2013-07-15 20:16:00,81.0,63.0,30.13,NW,315,0.0,-999.0,55,-99.99,,,-99.99,44.000000,,2013-07-16 00:16:00,
2013-07-15 20:27:00,81.0,63.0,30.13,NW,315,0.0,-999.0,55,-99.99,,,-99.99,44.000000,,2013-07-16 00:27:00,
2013-07-15 20:34:00,80.0,63.0,30.13,NW,315,0.0,-999.0,56,-99.99,,,-99.99,16.000000,,2013-07-16 00:34:00,
2013-07-15 20:48:00,80.0,64.0,30.13,NW,313,0.0,-999.0,58,-99.99,,,-99.99,9.000000,,2013-07-16 00:48:00,
2013-07-15 21:28:00,77.0,64.0,30.14,NW,315,0.0,-999.0,65,-99.99,,,-99.99,0.000000,,2013-07-16 01:28:00,
2013-07-15 21:58:00,74.0,64.0,30.14,NW,315,0.0,-999.0,71,-99.99,,,-99.99,0.000000,,2013-07-16 01:58:00,
2013-07-15 22:06:00,73.0,64.0,30.14,NW,315,0.0,-999.0,73,-99.99,,,-99.99,0.000000,,2013-07-16 02:06:00,
2013-07-15 22:11:00,73.0,64.0,30.14,NW,315,0.0,-999.0,73,-99.99,,,-99.99,0.000000,,2013-07-16 02:11:00,
2013-07-15 22:29:00,73.0,64.0,30.15,NW,315,0.0,-999.0,74,-99.99,,,-99.99,0.000000,,2013-07-16 02:29:00,
2013-07-15 22:35:00,72.0,64.0,30.15,NW,315,0.0,-999.0,75,-99.99,,,-99.99,0.000000,,2013-07-16 02:35:00,
2013-07-15 22:54:00,72.0,64.0,30.16,NW,313,0.0,-999.0,76,-99.99,,,-99.99,0.000000,,2013-07-16 02:54:00,
2013-07-15 23:10:00,72.0,64.0,30.16,NW,313,0.0,-999.0,77,-99.99,,,-99.99,0.000000,,2013-07-16 03:10:00,
2013-07-15 23:17:00,72.0,64.0,30.16,NW,313,0.0,-999.0,77,-99.99,,,-99.99,0.000000,,2013-07-16 03:17:00,
2013-07-15 23:29:00,71.0,64.0,30.16,NW,315,0.0,-999.0,79,-99.99,,,-99.99,0.000000,,2013-07-16 03:29:00,
2013-07-15 23:47:00,70.0,65.0,30.16,NW,313,0.0,-999.0,83,-99.99,,,-99.99,0.000000,,2013-07-16 03:47:00,
2013-07-15 23:57:00,70.0,65.0,30.16,NW,313,0.0,-999.0,83,-99.99,,,-99.99,0.000000,,2013-07-16 03:57:00,